Weather History for Manhattan, KS

Change the Weather History Date:

Friday, November 18, 2011

  Actual Average Record
Temperature  
Mean Temperature 50 °F 41 °F  
Max Temperature 60 °F 54 °F 75 °F (1999)
Min Temperature 41 °F 29 °F 16 °F (2000)
Degree Days  
Heating Degree Days 14 24  
Month to date heating degree days 356  
Since 1 July heating degree days 755  
Cooling Degree Days 0 0  
Month to date cooling degree days 0  
Year to date cooling degree days 1361  
Moisture  
Dew Point 34 °F    
Average Humidity 55    
Maximum Humidity 71    
Minimum Humidity 44    
Precipitation  
Precipitation 0.00 in 0.04 in 0.17 in (2004)
Month to date precipitation 1.12  
Year to date precipitation 31.05  
Sea Level Pressure  
Sea Level Pressure 29.78 in    
Wind  
Wind Speed 19 mph (SSW)    
Max Wind Speed 30 mph    
Max Gust Speed 38 mph    
Visibility 10 miles    
Events      
T = Trace of Precipitation, MM = Missing Value Source: NWS Daily Summary

Daily Weather History Graph

Daily Weather History Graph

Search for Another Location

Airport:

Trip Planner

Search our weather history database for the weather conditions in past years. The results will help you decide how hot, cold, wet, or windy it might be!

Date:

Astronomy

Nov. 18, 2011 Rise Set
Actual Time 7:12 AM CST 5:10 PM CST
Civil Twilight 6:44 AM CST 5:39 PM CST
Nautical Twilight 6:11 AM CST 6:11 PM CST
Astronomical Twilight 5:39 AM CST 6:43 PM CST
Moon No Moon Rise 12:54 PM CST (11/18)
Length of Visible Light 10h 54m
Length of Day
9h 57m
Waning Gibbous, 49% of the Moon is Illuminated
Nov 18
Waning Gibbous
Nov 25
New
Dec 2
First Quarter
Dec 10
Full
Dec 17
Last Quarter

Hourly Weather History & Observations

Time (CST) Temp. Windchill Dew Point Humidity Pressure Visibility Wind Dir Wind Speed Gust Speed Precip Events Conditions
12:52 AM 42.1 °F 33.1 °F 24.1 °F 49% 29.96 in 10.0 mi SSW 20.7 mph 29.9 mph N/A   Clear
1:52 AM 41.0 °F 31.4 °F 25.0 °F 53% 29.94 in 10.0 mi SSW 21.9 mph 28.8 mph N/A   Clear
2:52 AM 41.0 °F 31.6 °F 26.1 °F 55% 29.93 in 10.0 mi SSW 20.7 mph 29.9 mph N/A   Clear
3:52 AM 41.0 °F 31.6 °F 26.1 °F 55% 29.91 in 10.0 mi SSW 20.7 mph 27.6 mph N/A   Clear
4:52 AM 41.0 °F 33.9 °F 27.0 °F 57% 29.89 in 10.0 mi SSW 12.7 mph 26.5 mph N/A   Clear
5:52 AM 42.1 °F 34.9 °F 27.0 °F 55% 29.88 in 10.0 mi SSW 13.8 mph 27.6 mph N/A   Clear
6:52 AM 43.0 °F 34.5 °F 27.0 °F 53% 29.86 in 10.0 mi SSW 19.6 mph 27.6 mph N/A   Clear
7:52 AM 44.1 °F 36.5 °F 28.0 °F 53% 29.85 in 10.0 mi SSW 17.3 mph 31.1 mph N/A   Clear
8:52 AM 46.9 °F - 30.9 °F 54% 29.83 in 10.0 mi SSW 19.6 mph 28.8 mph N/A   Clear
9:52 AM 50.0 °F - 33.8 °F 54% 29.80 in 10.0 mi SSW 21.9 mph 34.5 mph N/A   Clear
10:52 AM 54.0 °F - 34.0 °F 47% 29.80 in 10.0 mi SW 25.3 mph 34.5 mph N/A   Clear
11:52 AM 55.9 °F - 36.0 °F 47% 29.74 in 10.0 mi SSW 27.6 mph 36.8 mph N/A   Clear
12:52 PM 59.0 °F - 37.0 °F 44% 29.72 in 10.0 mi SSW 29.9 mph 36.8 mph N/A   Clear
1:52 PM 59.0 °F - 37.9 °F 46% 29.70 in 10.0 mi SW 29.9 mph 38.0 mph N/A   Clear
2:52 PM 60.8 °F - 39.2 °F 45% 29.68 in 10.0 mi SSW 25.3 mph 33.4 mph N/A   Clear
3:52 PM 57.0 °F - 39.9 °F 53% 29.69 in 10.0 mi SSW 15.0 mph 25.3 mph N/A   Clear
4:52 PM 55.9 °F - 39.9 °F 55% 29.69 in 10.0 mi SSW 13.8 mph - N/A   Clear
5:52 PM 53.6 °F - 39.2 °F 58% 29.69 in 10.0 mi SSW 9.2 mph - N/A   Clear
6:52 PM 53.1 °F - 39.0 °F 59% 29.70 in 10.0 mi South 11.5 mph - N/A   Clear
7:52 PM 53.1 °F - 37.9 °F 57% 29.68 in 10.0 mi South 12.7 mph 25.3 mph N/A   Clear
8:52 PM 51.1 °F - 37.9 °F 61% 29.69 in 10.0 mi South 9.2 mph - N/A   Clear
9:52 PM 50.0 °F - 39.0 °F 66% 29.69 in 10.0 mi SSW 9.2 mph - N/A   Clear
10:52 PM 48.9 °F - 39.9 °F 71% 29.67 in 10.0 mi South 6.9 mph - N/A   Clear
11:52 PM 50.0 °F - 41.0 °F 71% 29.65 in 10.0 mi South 10.4 mph - N/A   Clear